,,PA_Meas_PMT16A,,PR_Meas_QMR101_102,,RH_Meas_QMH101,,SR_Meas_QMS101,,TA_Meas_QMH101,,GenWind,,GenWind,
time,status,PA,status,PR,status,RH,status,SR,status,TA,status,DirAvg,status,SpdAvg,
2011-11-07, 00:00:04,VALID,918.071,VALID,0,VALID,86.4038,VALID,0.107441,VALID,20.5188,VALID,251,VALID,0.442969,
2011-11-07, 00:01:04,VALID,918.08,VALID,0,VALID,85.8549,VALID,0.107441,VALID,20.5789,VALID,251,VALID,0.572656,
2011-11-07, 00:02:04,VALID,918.051,VALID,0,VALID,86.3199,VALID,0,VALID,20.6179,VALID,251,VALID,0.579687,
2011-11-07, 00:03:04,VALID,918.062,VALID,0,VALID,86.5944,VALID,0,VALID,20.6374,VALID,251,VALID,0.410937,
2011-11-07, 00:04:04,VALID,918.025,VALID,0,VALID,86.9146,VALID,0,VALID,20.6179,VALID,251,VALID,0,
2011-11-07, 00:05:04,VALID,918.024,VALID,0,VALID,86.5105,VALID,0,VALID,20.5984,VALID,251,VALID,0.157422,
2011-11-07, 00:06:04,VALID,918.049,VALID,0,VALID,86.785,VALID,0,VALID,20.5789,VALID,251,VALID,0.551172,
2011-11-07, 00:07:04,VALID,918.042,VALID,0,VALID,87.0061,VALID,0,VALID,20.5789,VALID,251,VALID,0.403516,
2011-11-07, 00:08:04,VALID,918.016,VALID,0,VALID,87.311,VALID,0,VALID,20.5594,VALID,251,VALID,0.166016,
2011-11-07, 00:09:04,VALID,918.016,VALID,0,VALID,86.9298,VALID,0,VALID,20.5204,VALID,251,VALID,0.0792969,
2011-11-07, 00:10:04,VALID,918.037,VALID,0,VALID,86.9908,VALID,0,VALID,20.5204,VALID,251,VALID,0.439844,
2011-11-07, 00:11:04,VALID,918.013,VALID,0,VALID,86.5182,VALID,0.107441,VALID,20.5009,VALID,251,VALID,0.726172,
2011-11-07, 00:12:04,VALID,917.99,VALID,0,VALID,87.3567,VALID,0,VALID,20.4829,VALID,251,VALID,0.189844,
2011-11-07, 00:13:04,VALID,917.977,VALID,0,VALID,87.4101,VALID,0,VALID,20.4829,VALID,251,VALID,0.29375,
2011-11-07, 00:14:04,VALID,917.955,VALID,0,VALID,87.1738,VALID,0,VALID,20.4634,VALID,251,VALID,0.248828,
2011-11-07, 00:15:04,VALID,917.962,VALID,0,VALID,87.593,VALID,0,VALID,20.4634,VALID,251,VALID,0.244141,
2011-11-07, 00:16:04,VALID,917.977,VALID,0,VALID,86.7468,VALID,0,VALID,20.4423,VALID,251,VALID,0.546484,
2011-11-07, 00:17:04,VALID,917.94,VALID,0,VALID,87.6845,VALID,0,VALID,20.5024,VALID,251,VALID,0.711328,
2011-11-07, 00:18:04,VALID,917.97,VALID,0,VALID,87.4025,VALID,0,VALID,20.4439,VALID,322,VALID,0.742969,
2011-11-07, 00:19:04,VALID,917.943,VALID,0,VALID,87.7226,VALID,0,VALID,20.4049,VALID,281,VALID,0.324219,
2011-11-07, 00:20:04,VALID,917.913,VALID,0,VALID,87.9742,VALID,0,VALID,20.3854,VALID,281,VALID,0.571875,
2011-11-07, 00:21:04,VALID,917.936,VALID,0,VALID,88.1038,VALID,0,VALID,20.3659,VALID,281,VALID,0.34375,
2011-11-07, 00:22:04,VALID,917.884,VALID,0,VALID,88.3859,VALID,0,VALID,20.3269,VALID,281,VALID,0.321484,
2011-11-07, 00:23:04,VALID,917.904,VALID,0,VALID,88.6222,VALID,0,VALID,20.3074,VALID,282,VALID,0,
2011-11-07, 00:24:04,VALID,917.909,VALID,0,VALID,87.5397,VALID,0,VALID,20.2879,VALID,281,VALID,0.782031,
2011-11-07, 00:25:04,VALID,917.894,VALID,0,VALID,87.1585,VALID,0,VALID,20.3464,VALID,281,VALID,0.0195313,
2011-11-07, 00:26:04,VALID,917.882,VALID,0,VALID,88.0886,VALID,0,VALID,20.3659,VALID,282,VALID,0.487109,
2011-11-07, 00:27:04,VALID,917.871,VALID,0,VALID,88.5841,VALID,0,VALID,20.3659,VALID,281,VALID,0,
2011-11-07, 00:28:04,VALID,917.854,VALID,0,VALID,88.8585,VALID,0,VALID,20.3464,VALID,281,VALID,0.00195313,
2011-11-07, 00:29:04,VALID,917.886,VALID,0,VALID,88.8357,VALID,0,VALID,20.3074,VALID,281,VALID,0.485547,
2011-11-07, 00:30:04,VALID,917.865,VALID,0,VALID,89.1101,VALID,0,VALID,20.2684,VALID,281,VALID,0.687891,
2011-11-07, 00:31:04,VALID,917.813,VALID,0,VALID,88.9805,VALID,0,VALID,20.2293,VALID,282,VALID,0.585547,
2011-11-07, 00:32:04,VALID,917.759,VALID,0,VALID,89.4913,VALID,0,VALID,20.2098,VALID,36,VALID,1.23477,
2011-11-07, 00:33:04,VALID,917.76,VALID,0,VALID,89.1406,VALID,0,VALID,20.1708,VALID,36,VALID,0.437109,
2011-11-07, 00:34:04,VALID,917.789,VALID,0,VALID,89.1635,VALID,0,VALID,20.1708,VALID,36,VALID,0.569922,
2011-11-07, 00:35:04,VALID,917.804,VALID,0,VALID,89.0567,VALID,0,VALID,20.1318,VALID,35,VALID,1.0207,
2011-11-07, 00:36:04,VALID,917.794,VALID,0,VALID,89.7505,VALID,0,VALID,20.1318,VALID,35,VALID,0.797266,
2011-11-07, 00:37:04,VALID,917.768,VALID,0,VALID,90.0097,VALID,0,VALID,20.1123,VALID,35,VALID,0.676172,
2011-11-07, 00:38:04,VALID,917.777,VALID,0,VALID,89.9868,VALID,0,VALID,20.0538,VALID,35,VALID,0.689844,
2011-11-07, 00:39:04,VALID,917.756,VALID,0,VALID,89.9106,VALID,0,VALID,20.0343,VALID,35,VALID,0.333984,
2011-11-07, 00:40:04,VALID,917.737,VALID,0,VALID,90.0478,VALID,0,VALID,20.0538,VALID,36,VALID,0,
2011-11-07, 00:41:04,VALID,917.767,VALID,0,VALID,90.1774,VALID,0,VALID,20.0343,VALID,35,VALID,0,
2011-11-07, 00:42:04,VALID,917.791,VALID,0,VALID,90.185,VALID,0.107441,VALID,20.0328,VALID,35,VALID,0.284766,
2011-11-07, 00:43:04,VALID,917.792,VALID,0,VALID,89.9182,VALID,0,VALID,20.0328,VALID,35,VALID,0.403125,
2011-11-07, 00:44:04,VALID,917.823,VALID,0,VALID,89.8648,VALID,0,VALID,20.0118,VALID,35,VALID,0.5,
2011-11-07, 00:45:04,VALID,917.801,VALID,0,VALID,88.9043,VALID,0,VALID,20.0328,VALID,264,VALID,0.656641,
2011-11-07, 00:46:04,VALID,917.768,VALID,0,VALID,88.6527,VALID,0,VALID,20.0718,VALID,264,VALID,0.247656,
2011-11-07, 00:47:04,VALID,917.798,VALID,0,VALID,89.1177,VALID,0,VALID,20.1108,VALID,264,VALID,0.327734,
2011-11-07, 00:48:04,VALID,917.78,VALID,0,VALID,89.7429,VALID,0,VALID,20.0913,VALID,264,VALID,0,
2011-11-07, 00:49:04,VALID,917.784,VALID,0,VALID,90.1545,VALID,0.107441,VALID,20.0508,VALID,264,VALID,0.792188,
2011-11-07, 00:50:04,VALID,917.812,VALID,0,VALID,90.9245,VALID,0,VALID,20.0328,VALID,324,VALID,0.982031,
2011-11-07, 00:51:04,VALID,917.784,VALID,0,VALID,91.5191,VALID,0,VALID,19.9938,VALID,353,VALID,0.747266,
2011-11-07, 00:52:04,VALID,917.755,VALID,0,VALID,91.9613,VALID,0,VALID,19.9548,VALID,354,VALID,1.15508,
2011-11-07, 00:53:04,VALID,917.759,VALID,0,VALID,92.4187,VALID,0,VALID,19.9158,VALID,36,VALID,1.08789,
2011-11-07, 00:54:04,VALID,917.776,VALID,0,VALID,92.7846,VALID,0,VALID,19.8963,VALID,36,VALID,0.497266,
2011-11-07, 00:55:04,VALID,917.775,VALID,0,VALID,93.0743,VALID,0.107441,VALID,19.8558,VALID,35,VALID,0.483594,
2011-11-07, 00:56:04,VALID,917.775,VALID,0,VALID,93.3106,VALID,0,VALID,19.8378,VALID,36,VALID,0.319922,
2011-11-07, 00:57:04,VALID,917.751,VALID,0,VALID,93.4859,VALID,0,VALID,19.8198,VALID,36,VALID,0.692187,
2011-11-07, 00:58:04,VALID,917.693,VALID,0,VALID,93.6842,VALID,0,VALID,19.7793,VALID,35,VALID,0.716406,
2011-11-07, 00:59:04,VALID,917.667,VALID,0,VALID,93.8214,VALID,0,VALID,19.7208,VALID,36,VALID,1.14492,
2011-11-07, 01:00:04,VALID,917.701,VALID,0,VALID,94.0043,VALID,0,VALID,19.7028,VALID,36,VALID,0.564062,
2011-11-07, 01:01:04,VALID,917.672,VALID,0,VALID,94.1949,VALID,0,VALID,19.6833,VALID,36,VALID,0.933594,
2011-11-07, 01:02:04,VALID,917.682,VALID,0,VALID,94.355,VALID,0,VALID,19.6443,VALID,36,VALID,1.00898,
2011-11-07, 01:03:04,VALID,917.666,VALID,0,VALID,94.4617,VALID,0,VALID,19.6248,VALID,36,VALID,1.02734,
2011-11-07, 01:04:04,VALID,917.649,VALID,0,VALID,94.599,VALID,0.107441,VALID,19.5648,VALID,44,VALID,0.722266,
2011-11-07, 01:05:04,VALID,917.643,VALID,0,VALID,94.7514,VALID,0,VALID,19.5663,VALID,44,VALID,0.9625,
2011-11-07, 01:06:04,VALID,917.671,VALID,0,VALID,94.9039,VALID,0,VALID,19.5468,VALID,44,VALID,0.613281,
2011-11-07, 01:07:04,VALID,917.652,VALID,0,VALID,95.0259,VALID,0,VALID,19.5273,VALID,27,VALID,0.953906,
2011-11-07, 01:08:04,VALID,917.658,VALID,0,VALID,95.125,VALID,0,VALID,19.5078,VALID,22,VALID,1.08203,
2011-11-07, 01:09:04,VALID,917.64,VALID,0,VALID,95.186,VALID,0,VALID,19.4478,VALID,23,VALID,1.07344,
2011-11-07, 01:10:04,VALID,917.632,VALID,0,VALID,95.3079,VALID,0,VALID,19.4298,VALID,22,VALID,0.458984,
2011-11-07, 01:11:04,VALID,917.621,VALID,0,VALID,95.4528,VALID,0,VALID,19.3893,VALID,22,VALID,0.845312,
2011-11-07, 01:12:04,VALID,917.606,VALID,0,VALID,95.5595,VALID,0,VALID,19.4103,VALID,347,VALID,0.738672,
2011-11-07, 01:13:04,VALID,917.618,VALID,0,VALID,95.651,VALID,0,VALID,19.3893,VALID,5,VALID,0.826172,
2011-11-07, 01:14:04,VALID,917.608,VALID,0,VALID,95.7654,VALID,0,VALID,19.4103,VALID,2,VALID,1.08672,
2011-11-07, 01:15:04,VALID,917.581,VALID,0,VALID,95.8035,VALID,0,VALID,19.3908,VALID,2,VALID,0.817969,
2011-11-07, 01:16:04,VALID,917.568,VALID,0,VALID,95.8645,VALID,0,VALID,19.3908,VALID,34,VALID,1.20156,
2011-11-07, 01:17:04,VALID,917.537,VALID,0,VALID,95.9483,VALID,0,VALID,19.3908,VALID,11,VALID,1.26992,
2011-11-07, 01:18:04,VALID,917.572,VALID,0,VALID,96.0169,VALID,0,VALID,19.3713,VALID,10,VALID,1.15703,
2011-11-07, 01:19:04,VALID,917.582,VALID,0,VALID,96.055,VALID,0,VALID,19.3713,VALID,10,VALID,0.375781,
2011-11-07, 01:20:04,VALID,917.565,VALID,0,VALID,96.116,VALID,0,VALID,19.3713,VALID,11,VALID,0.215234,
2011-11-07, 01:21:04,VALID,917.57,VALID,0,VALID,96.1465,VALID,0,VALID,19.3503,VALID,30,VALID,1.03828,
2011-11-07, 01:22:04,VALID,917.517,VALID,0,VALID,96.2151,VALID,0,VALID,19.3713,VALID,29,VALID,0.740625,
2011-11-07, 01:23:04,VALID,917.509,VALID,0,VALID,96.2533,VALID,0,VALID,19.3698,VALID,29,VALID,0.820703,
2011-11-07, 01:24:04,VALID,917.53,VALID,0,VALID,96.2761,VALID,0,VALID,19.3713,VALID,29,VALID,0.839063,
2011-11-07, 01:25:04,VALID,917.501,VALID,0,VALID,96.3219,VALID,0,VALID,19.3518,VALID,29,VALID,0.633594,
2011-11-07, 01:26:04,VALID,917.515,VALID,0,VALID,96.3829,VALID,0,VALID,19.3518,VALID,29,VALID,0.834375,
2011-11-07, 01:27:04,VALID,917.475,VALID,0,VALID,96.4133,VALID,0,VALID,19.3308,VALID,29,VALID,0.874219,
2011-11-07, 01:28:04,VALID,917.465,VALID,0,VALID,96.4515,VALID,0,VALID,19.3323,VALID,23,VALID,0.942187,
2011-11-07, 01:29:04,VALID,917.451,VALID,0,VALID,96.4972,VALID,0,VALID,19.3323,VALID,15,VALID,1.27188,
2011-11-07, 01:30:04,VALID,917.466,VALID,0,VALID,96.5658,VALID,0,VALID,19.3323,VALID,15,VALID,0.711719,
2011-11-07, 01:31:04,VALID,917.48,VALID,0,VALID,96.6115,VALID,0,VALID,19.3323,VALID,15,VALID,0.614062,
2011-11-07, 01:32:04,VALID,917.46,VALID,0,VALID,96.6573,VALID,0,VALID,19.3518,VALID,15,VALID,0.303516,
2011-11-07, 01:33:04,VALID,917.485,VALID,0,VALID,96.6802,VALID,0,VALID,19.3323,VALID,15,VALID,0.644141,
2011-11-07, 01:34:04,VALID,917.448,VALID,0,VALID,96.7259,VALID,0,VALID,19.3518,VALID,15,VALID,0.905469,
2011-11-07, 01:35:04,VALID,917.43,VALID,0,VALID,96.7869,VALID,0,VALID,19.3713,VALID,15,VALID,0.994531,
2011-11-07, 01:36:04,VALID,917.441,VALID,0,VALID,96.7716,VALID,0,VALID,19.3908,VALID,15,VALID,0.947266,
2011-11-07, 01:37:04,VALID,917.396,VALID,0,VALID,96.7716,VALID,0,VALID,19.3908,VALID,15,VALID,0.0554687,
2011-11-07, 01:38:04,VALID,917.368,VALID,0,VALID,96.7945,VALID,0,VALID,19.3908,VALID,15,VALID,0.522656,
2011-11-07, 01:39:04,VALID,917.332,VALID,0,VALID,96.7716,VALID,0,VALID,19.3908,VALID,15,VALID,1.12969,
2011-11-07, 01:40:04,VALID,917.336,VALID,0,VALID,96.7793,VALID,0,VALID,19.3908,VALID,15,VALID,0.952344,
2011-11-07, 01:41:04,VALID,917.341,VALID,0,VALID,96.8174,VALID,0,VALID,19.3713,VALID,15,VALID,0.629297,
2011-11-07, 01:42:04,VALID,917.363,VALID,0,VALID,96.825,VALID,0,VALID,19.3698,VALID,15,VALID,0.108203,
2011-11-07, 01:43:04,VALID,917.349,VALID,0,VALID,96.8098,VALID,0,VALID,19.3503,VALID,14,VALID,0.533984,
2011-11-07, 01:44:04,VALID,917.314,VALID,0,VALID,96.8631,VALID,0.107441,VALID,19.3503,VALID,14,VALID,0.95625,
2011-11-07, 01:45:04,VALID,917.285,VALID,0,VALID,96.8784,VALID,0,VALID,19.3713,VALID,14,VALID,0.905469,
2011-11-07, 01:46:04,VALID,917.299,VALID,0,VALID,96.8707,VALID,0,VALID,19.3698,VALID,14,VALID,1.05977,
2011-11-07, 01:47:04,VALID,917.237,VALID,0,VALID,96.8707,VALID,0,VALID,19.3713,VALID,14,VALID,1.10586,
2011-11-07, 01:48:04,VALID,917.22,VALID,0,VALID,96.8479,VALID,0,VALID,19.3713,VALID,14,VALID,0.704297,
2011-11-07, 01:49:04,VALID,917.203,VALID,0,VALID,96.886,VALID,0,VALID,19.3503,VALID,325,VALID,0.695313,
2011-11-07, 01:50:04,VALID,917.222,VALID,0,VALID,96.9317,VALID,0,VALID,19.3518,VALID,2,VALID,0.666016,
2011-11-07, 01:51:04,VALID,917.216,VALID,0,VALID,96.9012,VALID,0,VALID,19.3503,VALID,326,VALID,0.673437,
2011-11-07, 01:52:04,VALID,917.187,VALID,0,VALID,96.9089,VALID,0,VALID,19.3518,VALID,334,VALID,0.552734,
2011-11-07, 01:53:04,VALID,917.182,VALID,0,VALID,96.9317,VALID,0,VALID,19.3308,VALID,334,VALID,0.36875,
2011-11-07, 01:54:04,VALID,917.14,VALID,0,VALID,96.9622,VALID,0,VALID,19.3518,VALID,3,VALID,1.225,
2011-11-07, 01:55:04,VALID,917.143,VALID,0,VALID,96.9622,VALID,0,VALID,19.3518,VALID,22,VALID,1.10273,
2011-11-07, 01:56:04,VALID,917.128,VALID,0,VALID,96.9851,VALID,0,VALID,19.3518,VALID,15,VALID,0.815234,
2011-11-07, 01:57:04,VALID,917.123,VALID,0,VALID,97.008,VALID,0,VALID,19.3518,VALID,15,VALID,0.84375,
2011-11-07, 01:58:04,VALID,917.105,VALID,0,VALID,96.9698,VALID,0,VALID,19.3308,VALID,15,VALID,1.41133,
2011-11-07, 01:59:04,VALID,917.077,VALID,0,VALID,97.0232,VALID,0,VALID,19.3323,VALID,15,VALID,0.950391,
2011-11-07, 02:00:04,VALID,917.1,VALID,0,VALID,97.0537,VALID,0,VALID,19.3518,VALID,15,VALID,0.823438,
2011-11-07, 02:01:04,VALID,917.107,VALID,0,VALID,97.0385,VALID,0,VALID,19.3323,VALID,24,VALID,1.35352,
2011-11-07, 02:02:04,VALID,917.054,VALID,0,VALID,97.0156,VALID,0,VALID,19.3323,VALID,25,VALID,0.704687,
2011-11-07, 02:03:04,VALID,917.08,VALID,0,VALID,97.0385,VALID,0,VALID,19.3308,VALID,25,VALID,0.900781,
2011-11-07, 02:04:04,VALID,917.103,VALID,0,VALID,97.008,VALID,0,VALID,19.3518,VALID,25,VALID,0.662891,
2011-11-07, 02:05:04,VALID,917.12,VALID,0,VALID,97.008,VALID,0,VALID,19.3308,VALID,25,VALID,0.479688,
2011-11-07, 02:06:04,VALID,917.104,VALID,0,VALID,97.0156,VALID,0,VALID,19.3713,VALID,25,VALID,0.3625,
2011-11-07, 02:07:04,VALID,917.075,VALID,0,VALID,97.0385,VALID,0,VALID,19.3713,VALID,25,VALID,0.414844,
2011-11-07, 02:08:04,VALID,917.065,VALID,0,VALID,97.0385,VALID,0,VALID,19.3503,VALID,25,VALID,0.912891,
2011-11-07, 02:09:04,VALID,917.052,VALID,0,VALID,97.0766,VALID,0.107441,VALID,19.3698,VALID,25,VALID,0.671875,
2011-11-07, 02:10:04,VALID,917.059,VALID,0,VALID,97.0842,VALID,0,VALID,19.4103,VALID,25,VALID,0.169141,
2011-11-07, 02:11:04,VALID,917.005,VALID,0,VALID,97.0766,VALID,0,VALID,19.4103,VALID,25,VALID,0.692187,
2011-11-07, 02:12:04,VALID,917.051,VALID,0,VALID,97.0232,VALID,0,VALID,19.3908,VALID,25,VALID,0.866797,
2011-11-07, 02:13:04,VALID,917.085,VALID,0,VALID,97.069,VALID,0,VALID,19.3698,VALID,7,VALID,0.787891,
2011-11-07, 02:14:04,VALID,917.086,VALID,0,VALID,97.0994,VALID,0,VALID,19.3893,VALID,10,VALID,0.680469,
2011-11-07, 02:15:04,VALID,917.081,VALID,0,VALID,97.0842,VALID,0,VALID,19.4298,VALID,11,VALID,0.536719,
2011-11-07, 02:16:04,VALID,917.091,VALID,0,VALID,97.0994,VALID,0,VALID,19.4493,VALID,10,VALID,0.40625,
2011-11-07, 02:17:04,VALID,917.089,VALID,0,VALID,97.069,VALID,0,VALID,19.4298,VALID,10,VALID,0,
2011-11-07, 02:18:04,VALID,917.065,VALID,0,VALID,97.0842,VALID,0,VALID,19.4298,VALID,10,VALID,0.00351562,
2011-11-07, 02:19:04,VALID,917.051,VALID,0,VALID,97.1071,VALID,0.107441,VALID,19.4493,VALID,10,VALID,0.723047,
2011-11-07, 02:20:04,VALID,917.032,VALID,0,VALID,97.069,VALID,0,VALID,19.4088,VALID,22,VALID,0.886719,
2011-11-07, 02:21:04,VALID,917.061,VALID,0,VALID,97.1452,VALID,0.107441,VALID,19.4283,VALID,22,VALID,0.628125,
2011-11-07, 02:22:04,VALID,917.029,VALID,0,VALID,97.1147,VALID,0,VALID,19.4493,VALID,22,VALID,0.579297,
2011-11-07, 02:23:04,VALID,917.004,VALID,0,VALID,97.1147,VALID,0,VALID,19.4298,VALID,22,VALID,0.862109,
2011-11-07, 02:24:04,VALID,916.98,VALID,0,VALID,97.0461,VALID,0,VALID,19.4088,VALID,22,VALID,0.673437,
2011-11-07, 02:25:04,VALID,917.006,VALID,0,VALID,97.0156,VALID,0,VALID,19.3698,VALID,22,VALID,0.605469,
2011-11-07, 02:26:04,VALID,916.994,VALID,0,VALID,97.069,VALID,0.107441,VALID,19.3908,VALID,22,VALID,0.553125,
2011-11-07, 02:27:04,VALID,916.975,VALID,0.2,VALID,97.0842,VALID,0,VALID,19.3908,VALID,22,VALID,0.720703,
2011-11-07, 02:28:04,VALID,916.956,VALID,0,VALID,97.0994,VALID,0,VALID,19.3908,VALID,22,VALID,0.0925781,
2011-11-07, 02:29:04,VALID,916.923,VALID,0,VALID,97.0613,VALID,0,VALID,19.3908,VALID,21,VALID,0.395312,
2011-11-07, 02:30:04,VALID,916.942,VALID,0,VALID,97.0232,VALID,0.107441,VALID,19.3503,VALID,22,VALID,0.739844,
2011-11-07, 02:31:04,VALID,916.92,VALID,0,VALID,97.0613,VALID,0,VALID,19.3518,VALID,22,VALID,0.853906,
2011-11-07, 02:32:04,VALID,916.936,VALID,0,VALID,97.1071,VALID,0.107441,VALID,19.3308,VALID,22,VALID,0.549219,
2011-11-07, 02:33:04,VALID,916.909,VALID,0,VALID,97.0994,VALID,0,VALID,19.3713,VALID,22,VALID,0.689453,
2011-11-07, 02:34:04,VALID,916.906,VALID,0,VALID,97.0308,VALID,0,VALID,19.3518,VALID,22,VALID,0.801172,
2011-11-07, 02:35:04,VALID,916.936,VALID,0,VALID,97.008,VALID,0,VALID,19.3323,VALID,21,VALID,0.88125,
2011-11-07, 02:36:04,VALID,916.902,VALID,0,VALID,97.0385,VALID,0,VALID,19.3128,VALID,21,VALID,0.96875,
2011-11-07, 02:37:04,VALID,916.867,VALID,0,VALID,97.008,VALID,0,VALID,19.3128,VALID,21,VALID,1.06172,
2011-11-07, 02:38:04,VALID,916.874,VALID,0,VALID,97.0461,VALID,0,VALID,19.2933,VALID,21,VALID,0.553516,
2011-11-07, 02:39:04,VALID,916.886,VALID,0,VALID,97.0385,VALID,0,VALID,19.2723,VALID,21,VALID,0.560547,
2011-11-07, 02:40:04,VALID,916.903,VALID,0,VALID,97.0994,VALID,0,VALID,19.2933,VALID,21,VALID,0.367188,
2011-11-07, 02:41:04,VALID,916.903,VALID,0,VALID,97.1299,VALID,0,VALID,19.3323,VALID,21,VALID,0.0398437,
2011-11-07, 02:42:04,VALID,916.887,VALID,0,VALID,97.1071,VALID,0,VALID,19.3113,VALID,20,VALID,0,
2011-11-07, 02:43:04,VALID,916.843,VALID,0,VALID,97.1071,VALID,0,VALID,19.3113,VALID,21,VALID,0.0015625,
2011-11-07, 02:44:04,VALID,916.834,VALID,0,VALID,97.0613,VALID,0,VALID,19.3128,VALID,21,VALID,0.603125,
2011-11-07, 02:45:04,VALID,916.774,VALID,0,VALID,97.0842,VALID,0,VALID,19.3128,VALID,21,VALID,0.891016,
2011-11-07, 02:46:04,VALID,916.786,VALID,0,VALID,97.1452,VALID,0,VALID,19.3518,VALID,21,VALID,0.630859,
2011-11-07, 02:47:04,VALID,916.759,VALID,0,VALID,97.1376,VALID,0,VALID,19.3518,VALID,21,VALID,0.391406,
2011-11-07, 02:48:04,VALID,916.788,VALID,0,VALID,97.0994,VALID,0,VALID,19.3323,VALID,20,VALID,0.936328,
2011-11-07, 02:49:04,VALID,916.775,VALID,0,VALID,97.069,VALID,0,VALID,19.3128,VALID,20,VALID,0.531641,
2011-11-07, 02:50:04,VALID,916.767,VALID,0,VALID,97.1071,VALID,0.107441,VALID,19.3323,VALID,20,VALID,0.708594,
2011-11-07, 02:51:04,VALID,916.761,VALID,0,VALID,97.1071,VALID,0,VALID,19.3128,VALID,20,VALID,0.792969,
2011-11-07, 02:52:04,VALID,916.779,VALID,0,VALID,97.1147,VALID,0,VALID,19.3128,VALID,20,VALID,0.646484,
2011-11-07, 02:53:04,VALID,916.806,VALID,0,VALID,97.1299,VALID,0.107441,VALID,19.2933,VALID,20,VALID,0.814844,
2011-11-07, 02:54:04,VALID,916.791,VALID,0,VALID,97.1147,VALID,0,VALID,19.2738,VALID,20,VALID,0.759766,
2011-11-07, 02:55:04,VALID,916.746,VALID,0,VALID,97.1452,VALID,0,VALID,19.2723,VALID,20,VALID,0.751172,
2011-11-07, 02:56:04,VALID,916.704,VALID,0,VALID,97.1833,VALID,0,VALID,19.3128,VALID,20,VALID,1.02891,
2011-11-07, 02:57:04,VALID,916.679,VALID,0,VALID,97.1986,VALID,0,VALID,19.3128,VALID,20,VALID,0.780859,
2011-11-07, 02:58:04,VALID,916.696,VALID,0,VALID,97.1986,VALID,0,VALID,19.3128,VALID,20,VALID,0.694922,
2011-11-07, 02:59:04,VALID,916.667,VALID,0,VALID,97.1757,VALID,0,VALID,19.2723,VALID,20,VALID,0.989062,
2011-11-07, 03:00:04,VALID,916.684,VALID,0,VALID,97.1909,VALID,0,VALID,19.2723,VALID,20,VALID,1.14883,
2011-11-07, 03:01:04,VALID,916.694,VALID,0,VALID,97.2062,VALID,0,VALID,19.2528,VALID,19,VALID,0.855859,
2011-11-07, 03:02:04,VALID,916.699,VALID,0,VALID,97.229,VALID,0,VALID,19.2933,VALID,325,VALID,0.501562,
2011-11-07, 03:03:04,VALID,916.689,VALID,0,VALID,97.2443,VALID,0,VALID,19.2723,VALID,10,VALID,0.614844,
2011-11-07, 03:04:04,VALID,916.681,VALID,0,VALID,97.2443,VALID,0,VALID,19.2933,VALID,10,VALID,0.74375,
2011-11-07, 03:05:04,VALID,916.629,VALID,0,VALID,97.2519,VALID,0,VALID,19.2723,VALID,10,VALID,1.13945,
2011-11-07, 03:06:04,VALID,916.618,VALID,0,VALID,97.2824,VALID,0,VALID,19.2738,VALID,10,VALID,1.03672,
2011-11-07, 03:07:04,VALID,916.644,VALID,0,VALID,97.2595,VALID,0,VALID,19.2723,VALID,10,VALID,0.822656,
2011-11-07, 03:08:04,VALID,916.618,VALID,0,VALID,97.2672,VALID,0,VALID,19.2738,VALID,10,VALID,1.72109,
2011-11-07, 03:09:04,VALID,916.637,VALID,0,VALID,97.2443,VALID,0,VALID,19.2348,VALID,10,VALID,1.09844,
2011-11-07, 03:10:04,VALID,916.633,VALID,0,VALID,97.2977,VALID,0,VALID,19.2543,VALID,10,VALID,0.571094,
2011-11-07, 03:11:04,VALID,916.633,VALID,0,VALID,97.3053,VALID,0,VALID,19.2738,VALID,10,VALID,0.272266,
2011-11-07, 03:12:04,VALID,916.636,VALID,0,VALID,97.29,VALID,0,VALID,19.2543,VALID,10,VALID,0.609766,
2011-11-07, 03:13:04,VALID,916.637,VALID,0,VALID,97.29,VALID,0,VALID,19.2348,VALID,10,VALID,0.084375,
2011-11-07, 03:14:04,VALID,916.612,VALID,0,VALID,97.29,VALID,0,VALID,19.2348,VALID,10,VALID,0.435937,
2011-11-07, 03:15:04,VALID,916.589,VALID,0,VALID,97.3281,VALID,0,VALID,19.2348,VALID,10,VALID,0.735547,
2011-11-07, 03:16:04,VALID,916.584,VALID,0,VALID,97.3281,VALID,0,VALID,19.2348,VALID,10,VALID,0.791406,
2011-11-07, 03:17:04,VALID,916.56,VALID,0,VALID,97.3663,VALID,0,VALID,19.2348,VALID,10,VALID,0.569141,
2011-11-07, 03:18:04,VALID,916.55,VALID,0,VALID,97.3129,VALID,0,VALID,19.2334,VALID,9,VALID,0.360938,
2011-11-07, 03:19:04,VALID,916.552,VALID,0,VALID,97.3358,VALID,0,VALID,19.2348,VALID,10,VALID,0.228125,
2011-11-07, 03:20:04,VALID,916.532,VALID,0,VALID,97.3129,VALID,0,VALID,19.2153,VALID,9,VALID,0.577344,
2011-11-07, 03:21:04,VALID,916.53,VALID,0,VALID,97.3129,VALID,0,VALID,19.2153,VALID,9,VALID,0.751172,
2011-11-07, 03:22:04,VALID,916.522,VALID,0,VALID,97.3358,VALID,0,VALID,19.1944,VALID,10,VALID,1.00156,
2011-11-07, 03:23:04,VALID,916.529,VALID,0,VALID,97.3129,VALID,0,VALID,19.2153,VALID,10,VALID,0.504297,
2011-11-07, 03:24:04,VALID,916.534,VALID,0,VALID,97.29,VALID,0,VALID,19.1958,VALID,7,VALID,0.639844,
2011-11-07, 03:25:04,VALID,916.512,VALID,0,VALID,97.3129,VALID,0,VALID,19.1763,VALID,350,VALID,0.594922,
2011-11-07, 03:26:04,VALID,916.53,VALID,0,VALID,97.3053,VALID,0,VALID,19.1958,VALID,350,VALID,0.308984,
2011-11-07, 03:27:04,VALID,916.499,VALID,0,VALID,97.3129,VALID,0,VALID,19.1958,VALID,350,VALID,0.317969,
2011-11-07, 03:28:04,VALID,916.493,VALID,0,VALID,97.29,VALID,0,VALID,19.1763,VALID,350,VALID,0.600391,
2011-11-07, 03:29:04,VALID,916.476,VALID,0,VALID,97.3053,VALID,0,VALID,19.1763,VALID,350,VALID,0.667188,
2011-11-07, 03:30:04,VALID,916.437,VALID,0,VALID,97.2672,VALID,0,VALID,19.1763,VALID,19,VALID,1.11563,
2011-11-07, 03:31:04,VALID,916.438,VALID,0,VALID,97.2977,VALID,0,VALID,19.1763,VALID,19,VALID,0.520312,
2011-11-07, 03:32:04,VALID,916.454,VALID,0,VALID,97.2824,VALID,0,VALID,19.1763,VALID,18,VALID,0.410937,
2011-11-07, 03:33:04,VALID,916.486,VALID,0,VALID,97.2824,VALID,0,VALID,19.1958,VALID,19,VALID,0.0789063,
2011-11-07, 03:34:04,VALID,916.524,VALID,0,VALID,97.2748,VALID,0,VALID,19.1958,VALID,18,VALID,0.3375,
2011-11-07, 03:35:04,VALID,916.518,VALID,0,VALID,97.2138,VALID,0,VALID,19.1958,VALID,19,VALID,0.212891,
2011-11-07, 03:36:04,VALID,916.517,VALID,0,VALID,97.2214,VALID,0,VALID,19.2153,VALID,19,VALID,0.341797,
2011-11-07, 03:37:04,VALID,916.528,VALID,0,VALID,97.1452,VALID,0,VALID,19.2153,VALID,18,VALID,0.769141,
2011-11-07, 03:38:04,VALID,916.509,VALID,0,VALID,97.1376,VALID,0,VALID,19.2153,VALID,19,VALID,0.703125,
2011-11-07, 03:39:04,VALID,916.503,VALID,0,VALID,97.1223,VALID,0,VALID,19.2153,VALID,18,VALID,0.0515625,
2011-11-07, 03:40:04,VALID,916.484,VALID,0,VALID,97.1604,VALID,0,VALID,19.2348,VALID,19,VALID,0,
2011-11-07, 03:41:04,VALID,916.523,VALID,0,VALID,97.0994,VALID,0.107441,VALID,19.2139,VALID,19,VALID,0.00234375,
2011-11-07, 03:42:04,VALID,916.507,VALID,0,VALID,97.0232,VALID,0.107441,VALID,19.2153,VALID,19,VALID,0.762891,
2011-11-07, 03:43:04,VALID,916.484,VALID,0,VALID,97.0461,VALID,0,VALID,19.2153,VALID,19,VALID,0.620703,
2011-11-07, 03:44:04,VALID,916.461,VALID,0,VALID,96.9775,VALID,0,VALID,19.2153,VALID,19,VALID,0.713281,
2011-11-07, 03:45:04,VALID,916.444,VALID,0,VALID,96.9775,VALID,0,VALID,19.1958,VALID,19,VALID,0.632422,